EW9092 Weather Reports


Display with metric or nautical units.
time (UTC)temp
F
wind
direction
speed
MPH
gust
MPH
rain 1hr
in
rain 24hr
in
rain mn
in
humidity
%
barometer
mb
20260508103158 61 128 0.0 0.0 0.00 0.00 0.00 44 1014.0
20260508102650 61 128 0.0 0.0 0.00 0.00 0.00 42 1013.9
20260508102407 62 128 0.0 0.0 0.00 0.00 0.00 40 1014.0
20260508101634 62 127 0.0 0.0 0.00 0.00 0.00 39 1014.0
20260508101356 63 128 0.0 0.0 0.00 0.00 0.00 38 1014.0
20260508100624 63 128 0.0 0.0 0.00 0.00 0.00 37 1014.0
20260508100333 63 128 0.0 1.0 0.00 0.00 0.00 37 1013.9
20260508095607 64 127 0.0 1.0 0.00 0.00 0.00 37 1013.9
20260508095102 64 137 0.0 2.0 0.00 0.00 0.00 36 1013.8
20260508094551 63 98 0.0 2.0 0.00 0.00 0.00 37 1013.9
20260508094046 63 133 0.0 0.0 0.00 0.00 0.00 37 1013.9
20260508093540 63 133 0.0 0.0 0.00 0.00 0.00 40 1014.0
20260508093029 64 133 0.0 0.0 0.00 0.00 0.00 39 1014.0
20260508092747 65 133 0.0 0.0 0.00 0.00 0.00 35 1014.0
20260508092019 65 133 0.0 1.0 0.00 0.00 0.00 35 1013.9
20260508091508 65 134 0.0 1.0 0.00 0.00 0.00 35 1013.9
20260508091002 66 134 0.0 0.0 0.00 0.00 0.00 35 1014.0
20260508090455 67 134 0.0 2.0 0.00 0.00 0.00 33 1014.0
20260508090438 67 134 1.0 2.0 0.00 0.00 0.00 33 1014.0
20260508085439 67 145 1.0 3.0 0.00 0.00 0.00 33 1014.0
20260508084934 66 136 2.0 5.0 0.00 0.00 0.00 33 1013.9
20260508084424 66 141 1.0 5.0 0.00 0.00 0.00 33 1013.9
20260508083918 65 126 0.0 3.0 0.00 0.00 0.00 34 1014.0
20260508083636 64 153 0.0 2.0 0.00 0.00 0.00 36 1014.1
20260508083347 62 161 0.0 2.0 0.00 0.00 0.00 38 1014.2
20260508082356 62 155 0.0 0.0 0.00 0.00 0.00 40 1014.2
20260508081849 63 155 0.0 0.0 0.00 0.00 0.00 39 1014.4
20260508081607 63 155 0.0 0.0 0.00 0.00 0.00 39 1014.4
20260508080834 64 155 0.0 0.0 0.00 0.00 0.00 37 1014.4
20260508080328 65 155 0.0 0.0 0.00 0.00 0.00 36 1014.5
20260508075818 65 155 0.0 0.0 0.00 0.00 0.00 36 1014.5
20260508075311 65 155 0.0 0.0 0.00 0.00 0.00 36 1014.6
20260508074805 65 155 0.0 0.0 0.00 0.00 0.00 35 1014.7
20260508074255 66 155 0.0 0.0 0.00 0.00 0.00 32 1014.6
20260508073749 66 155 0.0 0.0 0.00 0.00 0.00 32 1014.7
20260508073244 67 155 0.0 0.0 0.00 0.00 0.00 31 1014.7
20260508072733 67 165 0.0 2.0 0.00 0.00 0.00 31 1014.6
20260508072229 67 131 0.0 2.0 0.00 0.00 0.00 31 1014.7
20260508071722 67 113 0.0 1.0 0.00 0.00 0.00 31 1014.7
20260508071212 67 96 0.0 1.0 0.00 0.00 0.00 31 1014.8
20260508070704 67 116 1.0 2.0 0.00 0.00 0.00 31 1014.8
20260508070200 67 129 1.0 3.0 0.00 0.00 0.00 30 1014.8
20260508065649 68 116 1.0 3.0 0.00 0.00 0.00 30 1014.7
20260508065144 68 121 1.0 3.0 0.00 0.00 0.00 30 1014.7
20260508064638 68 110 0.0 2.0 0.00 0.00 0.00 29 1014.8
20260508064128 68 129 0.0 1.0 0.00 0.00 0.00 29 1014.8
20260508063622 69 113 0.0 2.0 0.00 0.00 0.00 29 1014.8
20260508063121 69 117 0.0 2.0 0.00 0.00 0.00 29 1014.9
20260508062617 69 110 0.0 2.0 0.00 0.00 0.00 29 1015.0
20260508062344 69 133 0.0 2.0 0.00 0.00 0.00 29 1015.0
20260508061616 69 217 1.0 7.0 0.00 0.00 0.00 29 1015.0
20260508061116 69 219 1.0 7.0 0.00 0.00 0.00 30 1015.0
20260508060617 69 343 0.0 0.0 0.00 0.00 0.00 31 1014.8
20260508060114 69 343 0.0 0.0 0.00 0.00 0.00 30 1014.8
20260508055838 70 343 0.0 0.0 0.00 0.00 0.00 29 1014.9
20260508055109 70 343 0.0 2.0 0.00 0.00 0.00 28 1014.8
20260508054611 71 343 0.0 2.0 0.00 0.00 0.00 28 1014.7
20260508054106 71 6 0.0 0.0 0.00 0.00 0.00 27 1014.8
20260508053604 72 219 0.0 0.0 0.00 0.00 0.00 26 1014.8
20260508053103 72 219 0.0 1.0 0.00 0.00 0.00 25 1014.8
20260508052600 73 219 1.0 4.0 0.00 0.00 0.00 25 1014.8
20260508052058 73 214 1.0 4.0 0.00 0.00 0.00 24 1014.7
20260508051822 73 144 1.0 3.0 0.00 0.00 0.00 24 1014.6
20260508051312 73 242 1.0 4.0 0.00 0.00 0.00 25 1014.7
20260508050549 73 212 1.0 4.0 0.00 0.00 0.00 25 1014.7
20260508050042 73 160 1.0 4.0 0.00 0.00 0.00 25 1014.6
20260508045536 73 177 1.0 4.0 0.00 0.00 0.00 25 1014.6
20260508045037 73 165 1.0 3.0 0.00 0.00 0.00 24 1014.6
20260508044533 74 226 1.0 3.0 0.00 0.00 0.00 24 1014.6
20260508044259 74 155 2.0 5.0 0.00 0.00 0.00 24 1014.5
20260508043806 74 144 2.0 5.0 0.00 0.00 0.00 24 1014.5
20260508043035 73 177 2.0 5.0 0.00 0.00 0.00 24 1014.6
20260508042532 74 139 2.0 5.0 0.00 0.00 0.00 24 1014.5
20260508042032 74 146 2.0 5.0 0.00 0.00 0.00 24 1014.5
20260508041531 74 141 1.0 4.0 0.00 0.00 0.00 24 1014.4
20260508041032 74 151 1.0 3.0 0.00 0.00 0.00 24 1014.4
20260508040529 74 147 1.0 3.0 0.00 0.00 0.00 24 1014.4
20260508040028 74 151 0.0 2.0 0.00 0.00 0.00 24 1014.1
20260508035526 75 142 0.0 2.0 0.00 0.00 0.00 24 1014.0
20260508035025 75 142 0.0 2.0 0.00 0.00 0.00 23 1013.9
20260508034523 75 255 0.0 2.0 0.00 0.00 0.00 23 1013.8
20260508034023 75 161 1.0 3.0 0.00 0.00 0.00 23 1013.7
20260508033516 76 21 0.0 3.0 0.00 0.00 0.00 22 1013.7
20260508033011 76 75 0.0 3.0 0.00 0.00 0.00 23 1013.6
20260508032504 76 135 1.0 5.0 0.00 0.00 0.00 22 1013.4
20260508032005 77 139 2.0 6.0 0.00 0.00 0.00 21 1013.3
20260508031504 77 159 3.0 6.0 0.00 0.00 0.00 21 1013.2
20260508031004 77 203 3.0 6.0 0.00 0.00 0.00 21 1012.9
20260508030504 77 224 3.0 7.0 0.00 0.00 0.00 21 1012.8
20260508030005 77 212 4.0 8.0 0.00 0.00 0.00 20 1012.7
20260508025504 78 224 5.0 10.0 0.00 0.00 0.00 20 1012.6
20260508025005 78 234 6.0 12.0 0.00 0.00 0.00 20 1012.4
20260508024504 78 226 6.0 15.0 0.00 0.00 0.00 20 1012.3
20260508024005 78 208 6.0 15.0 0.00 0.00 0.00 19 1012.2
20260508023725 79 212 7.0 15.0 0.00 0.00 0.00 19 1012.0
20260508023005 79 209 7.0 15.0 0.00 0.00 0.00 19 1012.0
20260508022724 79 200 8.0 15.0 0.00 0.00 0.00 19 1012.0
20260508022000 80 231 9.0 15.0 0.00 0.00 0.00 18 1011.8
20260508021500 80 224 10.0 20.0 0.00 0.00 0.00 18 1011.6
20260508021000 82 243 9.0 20.0 0.00 0.00 0.00 17 1011.5
20260508020459 84 276 9.0 14.0 0.00 0.00 0.00 14 1011.5
20260508015959 84 285 8.0 14.0 0.00 0.00 0.00 13 1011.3
20260508015501 85 259 6.0 14.0 0.00 0.00 0.00 13 1011.1
20260508015001 85 291 7.0 15.0 0.00 0.00 0.00 13 1011.0
20260508014459 85 289 8.0 15.0 0.00 0.00 0.00 13 1010.9
20260508013959 86 264 7.0 14.0 0.00 0.00 0.00 13 1010.9
20260508013502 86 266 5.0 11.0 0.00 0.00 0.00 12 1010.8
20260508013003 87 287 4.0 10.0 0.00 0.00 0.00 12 1010.9
20260508012723 87 258 3.0 10.0 0.00 0.00 0.00 12 1010.9
20260508012003 88 251 4.0 13.0 0.00 0.00 0.00 12 1010.9
20260508011504 88 309 3.0 13.0 0.00 0.00 0.00 12 1010.7
20260508011004 88 243 2.0 9.0 0.00 0.00 0.00 12 1010.7
20260508010503 88 268 2.0 4.0 0.00 0.00 0.00 11 1010.7
20260508010002 88 253 2.0 6.0 0.00 0.00 0.00 12 1010.6
20260508005737 88 281 2.0 6.0 0.00 0.00 0.00 12 1010.6
20260508005004 88 347 2.0 5.0 0.00 0.00 0.00 12 1010.5
20260508004503 88 321 2.0 6.0 0.00 0.00 0.00 12 1010.5
20260508004004 88 318 2.0 6.0 0.00 0.00 0.00 13 1010.3
20260508003725 87 277 3.0 6.0 0.00 0.00 0.00 12 1010.3
20260508003005 88 8 2.0 5.0 0.00 0.00 0.00 12 1010.2
20260508002502 88 323 2.0 6.0 0.00 0.00 0.00 12 1010.3
20260508001957 88 255 2.0 6.0 0.00 0.00 0.00 12 1010.3
20260508001718 87 274 2.0 5.0 0.00 0.00 0.00 13 1010.2
20260508000958 86 280 2.0 5.0 0.00 0.00 0.00 13 1010.2
20260508000457 86 249 2.0 5.0 0.00 0.00 0.00 13 1010.2
20260507235955 86 151 2.0 4.0 0.00 0.00 0.00 12 1010.2
20260507235454 87 263 2.0 4.0 0.00 0.00 0.00 11 1010.2
20260507234953 87 229 2.0 4.0 0.00 0.00 0.00 11 1010.2
20260507234451 87 144 2.0 6.0 0.00 0.00 0.00 11 1010.2
20260507233951 86 104 3.0 9.0 0.00 0.00 0.00 11 1010.2
20260507233456 87 69 4.0 9.0 0.00 0.00 0.00 11 1010.3
20260507232951 88 98 3.0 9.0 0.00 0.00 0.00 11 1010.3
20260507232924 89 89 2.0 5.0 0.00 0.00 0.00 10 1010.2
20260507231948 89 94 2.0 5.0 0.00 0.00 0.00 10 1010.3
20260507231444 90 95 2.0 6.0 0.00 0.00 0.00 11 1010.3
20260507230939 89 196 3.0 6.0 0.00 0.00 0.00 11 1010.3
20260507230439 89 13 3.0 7.0 0.00 0.00 0.00 11 1010.5
20260507225937 90 3 2.0 7.0 0.00 0.00 0.00 10 1010.5
20260507225438 90 191 2.0 5.0 0.00 0.00 0.00 11 1010.5
20260507224938 89 220 2.0 7.0 0.00 0.00 0.00 12 1010.6
20260507224928 88 237 3.0 7.0 0.00 0.00 0.00 12 1010.6
20260507224159 87 257 3.0 10.0 0.00 0.00 0.00 12 1010.6
20260507223659 87 4 3.0 10.0 0.00 0.00 0.00 11 1010.6
20260507222933 88 263 3.0 7.0 0.00 0.00 0.00 11 1010.7
20260507222435 88 9 3.0 7.0 0.00 0.00 0.00 11 1010.7
20260507221935 89 323 3.0 9.0 0.00 0.00 0.00 11 1010.7
20260507221431 89 324 3.0 9.0 0.00 0.00 0.00 11 1010.7
20260507221148 88 18 4.0 8.0 0.00 0.00 0.00 11 1010.7
20260507220652 89 231 3.0 7.0 0.00 0.00 0.00 11 1010.7
20260507215934 89 23 3.0 7.0 0.00 0.00 0.00 10 1010.9
20260507215429 90 320 1.0 9.0 0.00 0.00 0.00 10 1011.0
20260507214923 90 296 1.0 5.0 0.00 0.00 0.00 11 1011.1
20260507214413 89 348 2.0 9.0 0.00 0.00 0.00 11 1011.2
20260507213907 88 296 3.0 9.0 0.00 0.00 0.00 11 1011.2
20260507213401 88 262 2.0 6.0 0.00 0.00 0.00 11 1011.3
20260507212849 87 221 2.0 4.0 0.00 0.00 0.00 12 1011.3
20260507212346 87 266 2.0 5.0 0.00 0.00 0.00 12 1011.5
20260507211839 87 329 3.0 9.0 0.00 0.00 0.00 12 1011.5
20260507211546 86 1 4.0 9.0 0.00 0.00 0.00 12 1011.6
20260507210823 86 313 4.0 10.0 0.00 0.00 0.00 12 1011.8
20260507210317 86 44 4.0 15.0 0.00 0.00 0.00 12 1011.9
20260507210024 87 77 3.0 15.0 0.00 0.00 0.00 12 1011.6
20260507205519 87 125 3.0 7.0 0.00 0.00 0.00 12 1011.9
20260507204755 88 39 1.0 7.0 0.00 0.00 0.00 12 1011.9
20260507204244 89 217 1.0 6.0 0.00 0.00 0.00 11 1012.0
20260507203739 89 286 1.0 5.0 0.00 0.00 0.00 11 1012.0
20260507203233 89 305 2.0 7.0 0.00 0.00 0.00 12 1012.1
20260507202722 89 270 3.0 7.0 0.00 0.00 0.00 11 1012.2
20260507202217 89 237 3.0 7.0 0.00 0.00 0.00 11 1012.1
20260507202155 89 196 2.0 7.0 0.00 0.00 0.00 11 1012.2
20260507201201 89 118 2.0 9.0 0.00 0.00 0.00 13 1012.2
20260507200655 88 252 3.0 9.0 0.00 0.00 0.00 12 1012.3
20260507200149 89 75 3.0 10.0 0.00 0.00 0.00 12 1012.4
20260507195638 89 105 4.0 10.0 0.00 0.00 0.00 12 1012.5
20260507195131 89 185 4.0 10.0 0.00 0.00 0.00 11 1012.5
20260507194628 89 101 5.0 11.0 0.00 0.00 0.00 12 1012.5
20260507194118 88 33 5.0 11.0 0.00 0.00 0.00 12 1012.5
20260507193609 88 80 3.0 8.0 0.00 0.00 0.00 13 1012.6
20260507193105 88 129 1.0 4.0 0.00 0.00 0.00 13 1012.6
20260507192554 87 276 3.0 10.0 0.00 0.00 0.00 13 1012.7
20260507192047 86 120 3.0 10.0 0.00 0.00 0.00 13 1012.7
20260507191543 86 356 3.0 10.0 0.00 0.00 0.00 13 1012.9
20260507191033 86 305 3.0 10.0 0.00 0.00 0.00 13 1012.9
20260507190528 87 265 2.0 6.0 0.00 0.00 0.00 13 1013.1
20260507190021 87 310 3.0 8.0 0.00 0.00 0.00 13 1013.2
20260507185511 86 328 4.0 8.0 0.00 0.00 0.00 13 1013.2
20260507185004 86 271 2.0 6.0 0.00 0.00 0.00 14 1013.2
20260507184459 86 250 1.0 5.0 0.00 0.00 0.00 15 1013.3
20260507184213 86 212 2.0 5.0 0.00 0.00 0.00 15 1013.4
20260507183443 85 283 2.0 5.0 0.00 0.00 0.00 15 1013.5
20260507182937 85 248 2.0 9.0 0.00 0.00 0.00 16 1013.5
20260507182427 84 276 2.0 9.0 0.00 0.00 0.00 16 1013.5
20260507181920 84 332 2.0 5.0 0.00 0.00 0.00 16 1013.6
20260507181415 83 19 2.0 6.0 0.00 0.00 0.00 16 1013.7
20260507180904 83 303 2.0 5.0 0.00 0.00 0.00 18 1013.8
20260507180359 83 323 2.0 5.0 0.00 0.00 0.00 17 1013.9
20260507175853 83 330 2.0 5.0 0.00 0.00 0.00 18 1014.0
20260507175343 82 266 2.0 5.0 0.00 0.00 0.00 19 1014.0
20260507174837 83 273 2.0 5.0 0.00 0.00 0.00 18 1014.1
20260507174331 83 313 1.0 4.0 0.00 0.00 0.00 18 1014.2
20260507173821 84 275 0.0 3.0 0.00 0.00 0.00 18 1014.4
20260507173315 83 137 0.0 2.0 0.00 0.00 0.00 18 1014.5
20260507172810 80 59 1.0 3.0 0.00 0.00 0.00 20 1014.6
20260507172259 80 25 1.0 4.0 0.00 0.00 0.00 19 1014.6
20260507171753 80 320 1.0 4.0 0.00 0.00 0.00 20 1014.6
20260507171253 79 285 2.0 4.0 0.00 0.00 0.00 20 1014.7
20260507170747 79 286 2.0 4.0 0.00 0.00 0.00 20 1014.7
20260507170510 79 285 1.0 4.0 0.00 0.00 0.00 20 1014.7
20260507170006 79 278 1.0 4.0 0.00 0.00 0.00 20 1014.8
20260507165247 79 274 0.0 2.0 0.00 0.00 0.00 21 1014.7
20260507164747 78 288 0.0 3.0 0.00 0.00 0.00 21 1014.8
20260507164247 77 281 1.0 3.0 0.00 0.00 0.00 21 1014.8
20260507163746 78 288 0.0 2.0 0.00 0.00 0.00 21 1014.8
20260507163251 78 275 0.0 2.0 0.00 0.00 0.00 21 1014.8
20260507162747 77 243 1.0 3.0 0.00 0.00 0.00 22 1014.9
20260507162508 77 271 1.0 3.0 0.00 0.00 0.00 21 1015.0
20260507161747 78 254 0.0 3.0 0.00 0.00 0.00 21 1015.1
20260507161246 76 278 1.0 2.0 0.00 0.00 0.00 22 1015.1
20260507160747 76 228 1.0 2.0 0.00 0.00 0.00 23 1015.2
20260507160500 75 218 0.0 2.0 0.00 0.00 0.00 23 1015.2
20260507155741 74 278 0.0 2.0 0.00 0.00 0.00 24 1015.2
20260507155241 76 273 0.0 0.0 0.00 0.00 0.00 23 1015.3
20260507154744 74 240 0.0 1.0 0.00 0.00 0.00 25 1015.4
20260507154239 72 240 0.0 2.0 0.00 0.00 0.00 26 1015.3
20260507153739 72 265 0.0 2.0 0.00 0.00 0.00 26 1015.3
20260507153240 71 278 0.0 0.0 0.00 0.00 0.00 27 1015.4
20260507152737 71 266 0.0 1.0 0.00 0.00 0.00 27 1015.3
20260507152234 71 323 1.0 2.0 0.00 0.00 0.00 28 1015.4
20260507151736 70 256 1.0 2.0 0.00 0.00 0.00 28 1015.4
20260507151234 70 320 0.0 2.0 0.00 0.00 0.00 29 1015.4
20260507150739 70 293 0.0 1.0 0.00 0.00 0.00 29 1015.5
20260507150235 69 254 0.0 2.0 0.00 0.00 0.00 29 1015.5
20260507145957 69 8 0.0 2.0 0.00 0.00 0.00 30 1015.5
20260507145232 68 233 0.0 0.0 0.00 0.00 0.00 28 1015.5
20260507144730 68 221 0.0 1.0 0.00 0.00 0.00 30 1015.5
20260507144232 68 221 0.0 1.0 0.00 0.00 0.00 30 1015.5
20260507143953 68 220 0.0 0.0 0.00 0.00 0.00 31 1015.7
20260507143230 68 220 0.0 0.0 0.00 0.00 0.00 31 1015.7
20260507142731 68 220 0.0 0.0 0.00 0.00 0.00 31 1015.7
20260507142231 69 220 0.0 0.0 0.00 0.00 0.00 31 1015.7
20260507141731 68 220 0.0 0.0 0.00 0.00 0.00 32 1015.7
20260507141232 66 220 0.0 0.0 0.00 0.00 0.00 34 1015.7
20260507140733 65 220 0.0 0.0 0.00 0.00 0.00 36 1015.7
20260507140727 64 220 0.0 0.0 0.00 0.00 0.00 37 1015.7
20260507140001 64 221 0.0 0.0 0.00 0.00 0.00 36 1015.7
20260507135231 63 221 0.0 0.0 0.00 0.00 0.00 36 1015.7
20260507134731 62 220 0.0 1.0 0.00 0.00 0.00 40 1015.7
20260507134230 61 220 0.0 1.0 0.00 0.00 0.00 41 1015.7
20260507133731 61 221 0.0 1.0 0.00 0.00 0.00 42 1015.5
20260507133230 60 220 0.0 1.0 0.00 0.00 0.00 44 1015.4
20260507132730 60 172 0.0 0.0 0.00 0.00 0.00 43 1015.4
20260507132231 59 125 0.0 0.0 0.00 0.00 0.00 44 1015.4
20260507131732 59 124 0.0 0.0 0.00 0.00 0.00 44 1015.4
20260507131232 59 125 0.0 0.0 0.00 0.00 0.00 43 1015.3
20260507130731 58 124 0.0 0.0 0.00 0.00 0.00 44 1015.3
20260507130230 57 125 0.0 0.0 0.00 0.00 0.00 47 1015.2
20260507125955 56 122 0.0 0.0 0.00 0.00 0.00 48 1015.3
20260507125230 55 110 0.0 0.0 0.00 0.00 0.00 50 1015.2
20260507124730 54 110 0.0 0.0 0.00 0.00 0.00 52 1015.2
20260507124230 53 110 0.0 0.0 0.00 0.00 0.00 53 1015.2
20260507124000 53 110 0.0 0.0 0.00 0.00 0.00 54 1015.2
20260507123231 53 110 0.0 0.0 0.00 0.00 0.00 56 1015.2
20260507122730 53 110 0.0 0.0 0.00 0.00 0.00 56 1015.2
20260507122229 53 110 0.0 0.0 0.00 0.00 0.00 55 1015.1
20260507121950 53 110 0.0 0.0 0.00 0.00 0.00 55 1015.1
20260507121226 53 110 0.0 0.0 0.00 0.00 0.00 56 1015.1
20260507120722 54 110 0.0 0.0 0.00 0.00 0.00 56 1015.0
20260507120221 54 110 0.0 0.0 0.00 0.00 0.00 56 1015.1
20260507115938 54 110 0.0 1.0 0.00 0.00 0.00 55 1015.1
20260507115210 54 63 0.0 1.0 0.00 0.00 0.00 55 1015.1
20260507114703 54 63 0.0 1.0 0.00 0.00 0.00 55 1015.2
20260507114204 54 63 0.0 2.0 0.00 0.00 0.00 55 1015.2
20260507113700 54 27 0.0 2.0 0.00 0.00 0.00 55 1015.2
20260507113200 55 27 0.0 2.0 0.00 0.00 0.00 53 1015.2
20260507112656 55 22 0.0 2.0 0.00 0.00 0.00 50 1015.1
20260507112156 56 22 0.0 2.0 0.00 0.00 0.00 48 1015.1
20260507111653 56 359 0.0 2.0 0.00 0.00 0.00 46 1015.1
20260507111153 57 146 0.0 1.0 0.00 0.00 0.00 43 1015.1
20260507110649 57 146 0.0 2.0 0.00 0.00 0.00 42 1015.1
20260507105646 57 158 2.0 4.0 0.00 0.00 0.00 42 1015.0
20260507105147 57 149 3.0 4.0 0.00 0.00 0.00 42 1015.0
20260507104647 57 138 3.0 5.0 0.00 0.00 0.00 42 1015.0
20260507104146 57 153 2.0 5.0 0.00 0.00 0.00 43 1015.0
20260507103647 57 146 2.0 4.0 0.00 0.00 0.00 43 1015.1
20260507103630 57 146 1.0 4.0 0.00 0.00 0.00 44 1015.1